Weather in Caldas Novas

Brazil     17°44′44″S   48°37′32″W
temp.,
°C
wind,
m/s
gust,
m/s
humid.,
%
clouds,
%
prec.,
mm/h
press.,
hPa
HPBL,
m
10 april, sat
sat1000:00+17ene22870 0.0 101711
03:00+16e22900 0.0 101619
06:00+15e22920 0.0 101716
09:00+22ene59650 0.0 1018627
12:00+27ene44470 0.0 10161452
15:00+28ene33410 0.0 10121814
18:00+22ne33630 0.0 101334
21:00+19ene22730 0.0 101514
11 april, sun
sun1100:00+17ne22820 0.0 101511
03:00+16ene11810 0.0 101411
06:00+15ese11820 0.0 101611
09:00+22e35590 0.0 1017416
12:00+27ne33450 0.0 10151385
15:00+29nne21410 0.0 10121950
18:00+23nne22640 0.0 101316
21:00+20ne01750 0.0 101511
12 april, mon
mon1200:00+19nne11800 0.0 101511
03:00+17ne11870 0.0 101511
06:00+16ese11890 0.0 101611
09:00+24ese23595 0.0 1017366
12:00+29e33325 0.0 10151630
15:00+30ne32310 0.0 10122055
18:00+24ne33561 0.0 101323
21:00+20n1169100 0.0 101611
13 april, tue
tue1300:00+19ne11734 0.0 101611
03:00+17e11795 0.0 101511
06:00+16e11825 0.0 101711
09:00+24ese35500 0.0 1018440
12:00+29e34350 0.0 10171448
15:00+30ene33300 0.0 10132216
18:00+24ne33521 0.0 101427
21:00+20ne11610 0.0 101511
14 april, wed
wed1400:00+18ene11714 0.0 101611
03:00+17e11740 0.0 101511
06:00+17e22720 0.0 101614
09:00+24e364979 0.0 1017475
12:00+29ne5641100 0.0 10151369
15:00+29ne4343100 0.0 10131894
18:00+24nne356599 0.0 101492
21:00+21ne22766 0.0 101519